Time,TemperatureF,DewpointF,PressureIn,WindDirection,WindDirectionDegrees,WindSpeedMPH,WindSpeedGustMPH,Humidity,HourlyPrecipIn,Conditions,Clouds,dailyrainin,SoftwareType,DateUTC
2013-02-05 00:00:00,41.0,38.9,30.12,WNW,301,0.0,0.0,92,0.00,,,0.00,Wunderground v.1.15,2013-02-05 08:00:00,
2013-02-05 00:05:00,40.9,38.8,30.12,WNW,301,0.0,0.0,92,0.00,,,0.00,Wunderground v.1.15,2013-02-05 08:05:00,
2013-02-05 00:10:00,40.9,39.0,30.12,WNW,301,0.0,0.0,93,0.00,,,0.00,Wunderground v.1.15,2013-02-05 08:10:00,
2013-02-05 00:15:00,41.1,39.2,30.11,WNW,301,0.0,0.0,93,0.00,,,0.00,Wunderground v.1.15,2013-02-05 08:15:00,
2013-02-05 00:20:00,41.3,39.4,30.11,WNW,301,0.0,0.0,93,0.00,,,0.00,Wunderground v.1.15,2013-02-05 08:20:00,
2013-02-05 00:30:00,41.0,39.1,30.11,WNW,301,0.0,0.0,93,0.00,,,0.00,Wunderground v.1.15,2013-02-05 08:30:00,
2013-02-05 00:35:00,40.7,38.6,30.11,WNW,301,0.0,0.0,92,0.00,,,0.00,Wunderground v.1.15,2013-02-05 08:35:00,
2013-02-05 00:40:00,40.5,38.4,30.11,WNW,301,0.0,0.0,92,0.00,,,0.00,Wunderground v.1.15,2013-02-05 08:40:00,
2013-02-05 00:45:00,40.4,38.5,30.11,WNW,301,0.0,0.0,93,0.00,,,0.00,Wunderground v.1.15,2013-02-05 08:45:00,
2013-02-05 00:55:00,39.9,37.8,30.11,WNW,301,0.0,0.0,92,0.00,,,0.00,Wunderground v.1.15,2013-02-05 08:55:00,
2013-02-05 01:00:00,39.8,37.7,30.10,WNW,301,0.0,0.0,92,0.00,,,0.00,Wunderground v.1.15,2013-02-05 09:00:00,
2013-02-05 01:05:00,39.7,37.8,30.11,WNW,301,0.0,0.0,93,0.00,,,0.00,Wunderground v.1.15,2013-02-05 09:05:00,
2013-02-05 01:10:00,39.7,37.8,30.11,WNW,301,0.0,0.0,93,0.00,,,0.00,Wunderground v.1.15,2013-02-05 09:10:00,
2013-02-05 01:15:00,39.6,37.7,30.11,WNW,301,0.0,0.0,93,0.00,,,0.00,Wunderground v.1.15,2013-02-05 09:15:00,
2013-02-05 01:20:00,39.5,37.4,30.11,WNW,301,0.0,0.0,92,0.00,,,0.00,Wunderground v.1.15,2013-02-05 09:20:00,
2013-02-05 01:25:00,39.3,37.4,30.11,WNW,301,0.0,0.0,93,0.00,,,0.00,Wunderground v.1.15,2013-02-05 09:25:00,
2013-02-05 01:30:00,39.2,37.3,30.10,WNW,301,0.0,0.0,93,0.00,,,0.00,Wunderground v.1.15,2013-02-05 09:30:00,
2013-02-05 01:35:00,39.0,36.9,30.10,WNW,301,0.0,0.0,92,0.00,,,0.00,Wunderground v.1.15,2013-02-05 09:35:00,
2013-02-05 01:45:00,38.8,36.9,30.10,WNW,301,0.0,0.0,93,0.00,,,0.00,Wunderground v.1.15,2013-02-05 09:45:00,
2013-02-05 01:55:00,38.9,37.0,30.10,WNW,301,0.0,0.0,93,0.00,,,0.00,Wunderground v.1.15,2013-02-05 09:55:00,
2013-02-05 02:00:00,38.9,37.0,30.10,WNW,301,0.0,0.0,93,0.00,,,0.00,Wunderground v.1.15,2013-02-05 10:00:00,
2013-02-05 02:05:00,38.6,36.8,30.10,WNW,301,0.0,0.0,93,0.00,,,0.00,Wunderground v.1.15,2013-02-05 10:05:00,
2013-02-05 02:10:00,38.4,36.6,30.10,WNW,301,0.0,0.0,93,0.00,,,0.00,Wunderground v.1.15,2013-02-05 10:10:00,
2013-02-05 02:15:00,38.3,36.5,30.09,WNW,301,0.0,0.0,93,0.00,,,0.00,Wunderground v.1.15,2013-02-05 10:15:00,
2013-02-05 02:20:00,38.4,36.6,30.09,WNW,301,0.0,0.0,93,0.00,,,0.00,Wunderground v.1.15,2013-02-05 10:20:00,
2013-02-05 02:25:00,38.1,36.3,30.09,WNW,301,0.0,0.0,93,0.00,,,0.00,Wunderground v.1.15,2013-02-05 10:25:00,
2013-02-05 02:30:00,38.0,36.2,30.09,WNW,301,0.0,0.0,93,0.00,,,0.00,Wunderground v.1.15,2013-02-05 10:30:00,
2013-02-05 02:35:00,37.9,36.1,30.09,WNW,301,0.0,0.0,93,0.00,,,0.00,Wunderground v.1.15,2013-02-05 10:35:00,
2013-02-05 02:40:00,37.8,36.0,30.09,WNW,301,0.0,0.0,93,0.00,,,0.00,Wunderground v.1.15,2013-02-05 10:40:00,
2013-02-05 02:45:00,37.7,35.9,30.09,WNW,301,0.0,0.0,93,0.00,,,0.00,Wunderground v.1.15,2013-02-05 10:45:00,
2013-02-05 02:50:00,37.5,35.7,30.08,WNW,301,0.0,0.0,93,0.00,,,0.00,Wunderground v.1.15,2013-02-05 10:50:00,
2013-02-05 02:55:00,37.4,35.6,30.08,WNW,301,0.0,0.0,93,0.00,,,0.00,Wunderground v.1.15,2013-02-05 10:55:00,
2013-02-05 03:00:00,37.2,35.4,30.08,WNW,301,0.0,0.0,93,0.00,,,0.00,Wunderground v.1.15,2013-02-05 11:00:00,
2013-02-05 03:10:00,37.1,35.3,30.08,WNW,301,0.0,0.0,93,0.00,,,0.00,Wunderground v.1.15,2013-02-05 11:10:00,
2013-02-05 03:15:00,37.0,35.2,30.08,WNW,301,0.0,0.0,93,0.00,,,0.00,Wunderground v.1.15,2013-02-05 11:15:00,
2013-02-05 03:20:00,36.9,35.1,30.08,WNW,301,0.0,0.0,93,0.00,,,0.00,Wunderground v.1.15,2013-02-05 11:20:00,
2013-02-05 03:24:00,36.9,35.1,30.08,WNW,301,0.0,0.0,93,0.00,,,0.00,Wunderground v.1.15,2013-02-05 11:24:00,
2013-02-05 03:30:00,36.8,35.0,30.08,WNW,301,0.0,0.0,93,0.00,,,0.00,Wunderground v.1.15,2013-02-05 11:30:00,
2013-02-05 03:40:00,36.8,35.2,30.08,WNW,301,0.0,0.0,94,0.00,,,0.00,Wunderground v.1.15,2013-02-05 11:40:00,
2013-02-05 03:45:00,37.0,35.4,30.08,WNW,301,0.0,0.0,94,0.00,,,0.00,Wunderground v.1.15,2013-02-05 11:45:00,
2013-02-05 03:50:00,37.4,35.8,30.08,WNW,301,0.0,0.0,94,0.00,,,0.00,Wunderground v.1.15,2013-02-05 11:50:00,
2013-02-05 03:55:00,37.6,36.3,30.08,WNW,301,0.0,0.0,95,0.00,,,0.00,Wunderground v.1.15,2013-02-05 11:55:00,
2013-02-05 04:00:00,38.0,36.7,30.08,WNW,301,0.0,0.0,95,0.00,,,0.00,Wunderground v.1.15,2013-02-05 12:00:00,
2013-02-05 04:05:00,38.6,37.3,30.08,WNW,301,0.0,0.0,95,0.00,,,0.00,Wunderground v.1.15,2013-02-05 12:05:00,
2013-02-05 04:10:00,39.3,38.0,30.08,WNW,301,0.0,0.0,95,0.00,,,0.00,Wunderground v.1.15,2013-02-05 12:10:00,
2013-02-05 04:15:00,40.1,39.1,30.08,WNW,301,0.0,0.0,96,0.00,,,0.00,Wunderground v.1.15,2013-02-05 12:15:00,
2013-02-05 04:20:00,40.4,39.1,30.08,WNW,301,0.0,0.0,95,0.00,,,0.00,Wunderground v.1.15,2013-02-05 12:20:00,
2013-02-05 04:25:00,40.7,39.6,30.08,WNW,301,0.0,0.0,96,0.00,,,0.00,Wunderground v.1.15,2013-02-05 12:25:00,
2013-02-05 04:30:00,41.2,39.9,30.08,WNW,301,0.0,0.0,95,0.00,,,0.00,Wunderground v.1.15,2013-02-05 12:30:00,
2013-02-05 04:35:00,41.5,40.4,30.08,WNW,301,0.0,0.0,96,0.00,,,0.00,Wunderground v.1.15,2013-02-05 12:35:00,
2013-02-05 04:40:00,41.9,40.8,30.08,WNW,301,0.0,0.0,96,0.00,,,0.00,Wunderground v.1.15,2013-02-05 12:40:00,
2013-02-05 04:45:00,42.0,40.9,30.08,WNW,301,0.0,0.0,96,0.00,,,0.00,Wunderground v.1.15,2013-02-05 12:45:00,
2013-02-05 04:50:00,42.1,41.0,30.08,WNW,301,0.0,0.0,96,0.00,,,0.00,Wunderground v.1.15,2013-02-05 12:50:00,
2013-02-05 04:55:00,41.9,40.6,30.08,WNW,301,0.0,0.0,95,0.00,,,0.00,Wunderground v.1.15,2013-02-05 12:55:00,
2013-02-05 05:00:00,41.8,40.5,30.07,WNW,301,0.0,0.0,95,0.00,,,0.00,Wunderground v.1.15,2013-02-05 13:00:00,
2013-02-05 05:05:00,41.6,40.3,30.07,WNW,301,0.0,0.0,95,0.00,,,0.00,Wunderground v.1.15,2013-02-05 13:05:00,
2013-02-05 05:10:00,41.7,40.4,30.07,WNW,301,0.0,0.0,95,0.00,,,0.00,Wunderground v.1.15,2013-02-05 13:10:00,
2013-02-05 05:15:00,42.0,40.9,30.07,WNW,301,0.0,0.0,96,0.00,,,0.00,Wunderground v.1.15,2013-02-05 13:15:00,
2013-02-05 05:20:00,42.4,41.3,30.08,WNW,301,0.0,0.0,96,0.00,,,0.00,Wunderground v.1.15,2013-02-05 13:20:00,
2013-02-05 05:25:00,42.7,41.6,30.08,WNW,301,0.0,0.0,96,0.00,,,0.00,Wunderground v.1.15,2013-02-05 13:25:00,
2013-02-05 05:30:00,42.9,41.8,30.08,WNW,301,0.0,0.0,96,0.00,,,0.00,Wunderground v.1.15,2013-02-05 13:30:00,
2013-02-05 05:35:00,43.1,42.0,30.08,WNW,301,0.0,0.0,96,0.00,,,0.00,Wunderground v.1.15,2013-02-05 13:35:00,
2013-02-05 05:40:00,43.3,42.2,30.08,WNW,301,0.0,0.0,96,0.00,,,0.00,Wunderground v.1.15,2013-02-05 13:40:00,
2013-02-05 05:45:00,43.3,42.2,30.08,WNW,301,0.0,0.0,96,0.00,,,0.00,Wunderground v.1.15,2013-02-05 13:45:00,
2013-02-05 05:50:00,43.3,42.2,30.08,WNW,301,0.0,0.0,96,0.00,,,0.00,Wunderground v.1.15,2013-02-05 13:50:00,
2013-02-05 05:55:00,43.4,42.3,30.08,WNW,301,0.0,0.0,96,0.00,,,0.00,Wunderground v.1.15,2013-02-05 13:55:00,
2013-02-05 06:00:00,43.6,42.5,30.08,WNW,301,0.0,0.0,96,0.00,,,0.00,Wunderground v.1.15,2013-02-05 14:00:00,
2013-02-05 06:05:00,43.7,42.6,30.08,WNW,301,0.0,0.0,96,0.00,,,0.00,Wunderground v.1.15,2013-02-05 14:05:00,
2013-02-05 06:10:00,43.8,42.7,30.08,WNW,301,0.0,0.0,96,0.00,,,0.00,Wunderground v.1.15,2013-02-05 14:10:00,
2013-02-05 06:15:00,43.9,42.8,30.09,WNW,301,0.0,0.0,96,0.00,,,0.00,Wunderground v.1.15,2013-02-05 14:15:00,
2013-02-05 06:20:00,44.1,43.0,30.09,WNW,301,0.0,0.0,96,0.00,,,0.00,Wunderground v.1.15,2013-02-05 14:20:00,
2013-02-05 06:24:00,44.2,43.1,30.10,WNW,301,0.0,0.0,96,0.00,,,0.00,Wunderground v.1.15,2013-02-05 14:24:00,
2013-02-05 06:30:00,44.2,43.1,30.10,WNW,301,0.0,0.0,96,0.00,,,0.00,Wunderground v.1.15,2013-02-05 14:30:00,
2013-02-05 06:40:00,44.3,43.2,30.10,WNW,301,0.0,0.0,96,0.00,,,0.00,Wunderground v.1.15,2013-02-05 14:40:00,
2013-02-05 06:45:00,44.3,43.2,30.10,WNW,301,0.0,0.0,96,0.00,,,0.00,Wunderground v.1.15,2013-02-05 14:45:00,
2013-02-05 06:50:00,44.3,43.2,30.10,WNW,301,0.0,0.0,96,0.00,,,0.00,Wunderground v.1.15,2013-02-05 14:50:00,
2013-02-05 06:55:00,44.4,43.3,30.10,WNW,301,0.0,0.0,96,0.00,,,0.00,Wunderground v.1.15,2013-02-05 14:55:00,
2013-02-05 07:00:00,44.6,43.5,30.10,WNW,301,0.0,0.0,96,0.00,,,0.00,Wunderground v.1.15,2013-02-05 15:00:00,
2013-02-05 07:05:00,44.9,43.8,30.11,WNW,301,0.0,0.0,96,0.00,,,0.00,Wunderground v.1.15,2013-02-05 15:05:00,
2013-02-05 07:10:00,44.9,43.8,30.11,WNW,301,0.0,0.0,96,0.00,,,0.00,Wunderground v.1.15,2013-02-05 15:10:00,
2013-02-05 07:15:00,45.0,43.9,30.11,WNW,301,0.0,0.0,96,0.00,,,0.00,Wunderground v.1.15,2013-02-05 15:15:00,
2013-02-05 07:20:00,45.1,44.0,30.11,WNW,301,0.0,0.0,96,0.00,,,0.00,Wunderground v.1.15,2013-02-05 15:20:00,
2013-02-05 07:25:00,45.2,44.1,30.11,WNW,301,0.0,0.0,96,0.00,,,0.00,Wunderground v.1.15,2013-02-05 15:25:00,
2013-02-05 07:30:00,45.4,44.3,30.12,WNW,301,0.0,0.0,96,0.00,,,0.00,Wunderground v.1.15,2013-02-05 15:30:00,
2013-02-05 07:35:00,45.5,44.4,30.12,WNW,301,0.0,0.0,96,0.00,,,0.00,Wunderground v.1.15,2013-02-05 15:35:00,
2013-02-05 07:40:00,45.6,44.5,30.12,WNW,301,0.0,0.0,96,0.00,,,0.00,Wunderground v.1.15,2013-02-05 15:40:00,
2013-02-05 07:45:00,45.6,44.5,30.12,WNW,301,0.0,0.0,96,0.00,,,0.00,Wunderground v.1.15,2013-02-05 15:45:00,
2013-02-05 07:50:00,45.8,44.7,30.12,WNW,301,0.0,0.0,96,0.00,,,0.00,Wunderground v.1.15,2013-02-05 15:50:00,
2013-02-05 07:55:00,45.8,44.7,30.12,WNW,301,0.0,0.0,96,0.00,,,0.00,Wunderground v.1.15,2013-02-05 15:55:00,
2013-02-05 08:00:00,46.0,44.9,30.13,WNW,301,0.0,0.0,96,0.00,,,0.00,Wunderground v.1.15,2013-02-05 16:00:00,
2013-02-05 08:05:00,46.1,45.0,30.13,WNW,301,0.0,0.0,96,0.00,,,0.00,Wunderground v.1.15,2013-02-05 16:05:00,
2013-02-05 08:10:00,46.2,45.1,30.13,WNW,301,0.0,0.0,96,0.00,,,0.00,Wunderground v.1.15,2013-02-05 16:10:00,
2013-02-05 08:15:00,46.2,45.1,30.13,WNW,301,0.0,1.0,96,0.00,,,0.00,Wunderground v.1.15,2013-02-05 16:15:00,
2013-02-05 08:20:00,46.4,45.3,30.13,WNW,301,0.0,0.0,96,0.00,,,0.00,Wunderground v.1.15,2013-02-05 16:20:00,
2013-02-05 08:24:00,46.5,45.4,30.13,WNW,301,0.0,0.0,96,0.00,,,0.00,Wunderground v.1.15,2013-02-05 16:24:00,
2013-02-05 08:30:00,46.6,45.5,30.13,WNW,301,0.0,0.0,96,0.00,,,0.00,Wunderground v.1.15,2013-02-05 16:30:00,
2013-02-05 08:35:00,46.7,45.6,30.13,WNW,301,0.0,0.0,96,0.00,,,0.00,Wunderground v.1.15,2013-02-05 16:35:00,
2013-02-05 08:40:00,46.8,45.7,30.13,WNW,301,0.0,0.0,96,0.00,,,0.00,Wunderground v.1.15,2013-02-05 16:40:00,
2013-02-05 08:45:00,47.0,45.9,30.13,WNW,301,0.0,1.0,96,0.00,,,0.00,Wunderground v.1.15,2013-02-05 16:45:00,
2013-02-05 08:50:00,47.1,46.0,30.13,WNW,301,0.0,0.0,96,0.00,,,0.00,Wunderground v.1.15,2013-02-05 16:50:00,
2013-02-05 08:55:00,47.2,46.1,30.14,WNW,301,0.0,0.0,96,0.00,,,0.00,Wunderground v.1.15,2013-02-05 16:55:00,
2013-02-05 09:00:00,47.3,46.2,30.13,WNW,301,0.0,1.0,96,0.00,,,0.00,Wunderground v.1.15,2013-02-05 17:00:00,
2013-02-05 09:05:00,47.4,46.3,30.13,WNW,301,0.0,1.0,96,0.00,,,0.00,Wunderground v.1.15,2013-02-05 17:05:00,
2013-02-05 09:10:00,47.4,46.3,30.14,WNW,301,0.0,0.0,96,0.00,,,0.00,Wunderground v.1.15,2013-02-05 17:10:00,
2013-02-05 09:15:00,47.5,46.4,30.14,WNW,301,0.0,0.0,96,0.00,,,0.00,Wunderground v.1.15,2013-02-05 17:15:00,
2013-02-05 09:25:00,47.6,46.5,30.14,NNW,344,0.0,3.0,96,0.00,,,0.00,Wunderground v.1.15,2013-02-05 17:25:00,
2013-02-05 09:30:00,47.6,46.5,30.13,NNW,344,0.0,1.0,96,0.00,,,0.00,Wunderground v.1.15,2013-02-05 17:30:00,
2013-02-05 09:35:00,47.7,46.6,30.14,North,355,0.0,1.0,96,0.00,,,0.00,Wunderground v.1.15,2013-02-05 17:35:00,
2013-02-05 09:40:00,47.7,46.6,30.14,North,355,0.0,1.0,96,0.00,,,0.00,Wunderground v.1.15,2013-02-05 17:40:00,
2013-02-05 09:45:00,47.8,46.7,30.14,North,5,0.0,1.0,96,0.00,,,0.00,Wunderground v.1.15,2013-02-05 17:45:00,
2013-02-05 09:50:00,47.8,46.7,30.14,NNE,27,1.0,1.0,96,0.00,,,0.00,Wunderground v.1.15,2013-02-05 17:50:00,
2013-02-05 09:55:00,48.1,47.0,30.14,NNE,28,1.0,1.0,96,0.00,,,0.00,Wunderground v.1.15,2013-02-05 17:55:00,
2013-02-05 10:00:00,48.2,46.8,30.14,NNE,30,1.0,1.0,95,0.00,,,0.00,Wunderground v.1.15,2013-02-05 18:00:00,
2013-02-05 10:05:00,48.5,47.4,30.14,NNE,30,1.0,1.0,96,0.00,,,0.00,Wunderground v.1.15,2013-02-05 18:05:00,
2013-02-05 10:10:00,48.7,47.3,30.14,NNE,30,0.0,0.0,95,0.00,,,0.00,Wunderground v.1.15,2013-02-05 18:10:00,
2013-02-05 10:15:00,48.8,47.4,30.14,NE,51,0.0,0.0,95,0.00,,,0.00,Wunderground v.1.15,2013-02-05 18:15:00,
2013-02-05 10:20:00,49.0,47.3,30.14,NE,51,1.0,1.0,94,0.00,,,0.00,Wunderground v.1.15,2013-02-05 18:20:00,
2013-02-05 10:25:00,49.2,47.5,30.14,NE,51,1.0,1.0,94,0.00,,,0.00,Wunderground v.1.15,2013-02-05 18:25:00,
2013-02-05 10:30:00,49.5,47.8,30.14,NE,51,1.0,1.0,94,0.00,,,0.00,Wunderground v.1.15,2013-02-05 18:30:00,
2013-02-05 10:35:00,49.8,48.1,30.14,NE,51,0.0,1.0,94,0.00,,,0.00,Wunderground v.1.15,2013-02-05 18:35:00,
2013-02-05 10:40:00,50.1,48.2,30.14,NE,50,0.0,0.0,93,0.00,,,0.00,Wunderground v.1.15,2013-02-05 18:40:00,
2013-02-05 10:45:00,50.4,48.5,30.14,NE,50,0.0,1.0,93,0.00,,,0.00,Wunderground v.1.15,2013-02-05 18:45:00,
2013-02-05 10:50:00,50.8,48.6,30.14,NE,50,0.0,0.0,92,0.00,,,0.00,Wunderground v.1.15,2013-02-05 18:50:00,
2013-02-05 10:55:00,51.2,48.7,30.14,NE,50,0.0,0.0,91,0.00,,,0.00,Wunderground v.1.15,2013-02-05 18:55:00,
2013-02-05 11:00:00,51.5,49.0,30.13,NE,50,0.0,0.0,91,0.00,,,0.00,Wunderground v.1.15,2013-02-05 19:00:00,
2013-02-05 11:05:00,51.7,48.9,30.13,NE,50,0.0,1.0,90,0.00,,,0.00,Wunderground v.1.15,2013-02-05 19:05:00,
2013-02-05 11:10:00,52.0,49.2,30.13,NE,50,0.0,1.0,90,0.00,,,0.00,Wunderground v.1.15,2013-02-05 19:10:00,
2013-02-05 11:15:00,52.3,49.2,30.13,NE,50,0.0,1.0,89,0.00,,,0.00,Wunderground v.1.15,2013-02-05 19:15:00,
2013-02-05 11:24:00,52.7,49.2,30.14,NE,50,0.0,0.0,88,0.00,,,0.00,Wunderground v.1.15,2013-02-05 19:24:00,
2013-02-05 11:35:00,52.9,49.4,30.13,NE,50,0.0,0.0,88,0.00,,,0.00,Wunderground v.1.15,2013-02-05 19:35:00,
2013-02-05 11:40:00,53.1,49.3,30.13,NE,50,0.0,0.0,87,0.00,,,0.00,Wunderground v.1.15,2013-02-05 19:40:00,
2013-02-05 11:45:00,53.2,49.4,30.13,NE,50,0.0,0.0,87,0.00,,,0.00,Wunderground v.1.15,2013-02-05 19:45:00,
2013-02-05 11:55:00,53.2,49.4,30.12,NNW,347,0.0,0.0,87,0.00,,,0.00,Wunderground v.1.15,2013-02-05 19:55:00,
2013-02-05 12:00:00,53.2,49.4,30.12,NNW,347,0.0,0.0,87,0.00,,,0.00,Wunderground v.1.15,2013-02-05 20:00:00,
2013-02-05 12:05:00,53.3,49.5,30.11,NNW,347,0.0,0.0,87,0.00,,,0.00,Wunderground v.1.15,2013-02-05 20:05:00,
2013-02-05 12:10:00,53.4,49.6,30.11,NNW,347,0.0,0.0,87,0.00,,,0.00,Wunderground v.1.15,2013-02-05 20:10:00,
2013-02-05 12:15:00,53.4,49.3,30.11,NNW,347,0.0,0.0,86,0.00,,,0.00,Wunderground v.1.15,2013-02-05 20:15:00,
2013-02-05 12:20:00,53.4,49.3,30.11,NNW,340,0.0,0.0,86,0.00,,,0.00,Wunderground v.1.15,2013-02-05 20:20:00,
2013-02-05 12:25:00,53.5,49.1,30.10,NNW,340,0.0,0.0,85,0.00,,,0.00,Wunderground v.1.15,2013-02-05 20:25:00,
2013-02-05 12:30:00,53.6,49.2,30.10,NNW,340,0.0,0.0,85,0.00,,,0.00,Wunderground v.1.15,2013-02-05 20:30:00,
2013-02-05 12:40:00,54.0,49.3,30.09,NNW,340,0.0,1.0,84,0.00,,,0.00,Wunderground v.1.15,2013-02-05 20:40:00,
2013-02-05 12:45:00,54.2,49.5,30.09,North,360,0.0,1.0,84,0.00,,,0.00,Wunderground v.1.15,2013-02-05 20:45:00,
2013-02-05 12:50:00,54.2,49.5,30.09,NE,39,1.0,1.0,84,0.00,,,0.00,Wunderground v.1.15,2013-02-05 20:50:00,
2013-02-05 12:55:00,54.1,49.4,30.08,NE,39,1.0,1.0,84,0.00,,,0.00,Wunderground v.1.15,2013-02-05 20:55:00,
2013-02-05 13:00:00,54.1,49.4,30.08,NE,39,0.0,0.0,84,0.00,,,0.00,Wunderground v.1.15,2013-02-05 21:00:00,
2013-02-05 13:05:00,54.0,49.6,30.08,NE,49,0.0,0.0,85,0.00,,,0.00,Wunderground v.1.15,2013-02-05 21:05:00,
2013-02-05 13:10:00,54.0,49.6,30.08,NE,49,0.0,3.0,85,0.00,,,0.00,Wunderground v.1.15,2013-02-05 21:10:00,
2013-02-05 13:15:00,53.9,49.5,30.07,NE,49,1.0,3.0,85,0.00,,,0.00,Wunderground v.1.15,2013-02-05 21:15:00,
2013-02-05 13:25:00,53.9,49.5,30.07,NE,49,1.0,2.0,85,0.00,,,0.00,Wunderground v.1.15,2013-02-05 21:25:00,
2013-02-05 13:30:00,53.9,49.5,30.07,NNE,30,0.0,0.0,85,0.00,,,0.00,Wunderground v.1.15,2013-02-05 21:30:00,
2013-02-05 13:40:00,53.9,49.5,30.06,NE,38,1.0,1.0,85,0.00,,,0.00,Wunderground v.1.15,2013-02-05 21:40:00,
2013-02-05 13:45:00,54.0,49.3,30.06,NE,39,2.0,2.0,84,0.00,,,0.00,Wunderground v.1.15,2013-02-05 21:45:00,
2013-02-05 13:55:00,54.3,49.6,30.05,NE,42,1.0,1.0,84,0.00,,,0.00,Wunderground v.1.15,2013-02-05 21:55:00,
2013-02-05 14:00:00,54.4,49.3,30.05,NE,42,1.0,1.0,83,0.00,,,0.00,Wunderground v.1.15,2013-02-05 22:00:00,
2013-02-05 14:05:00,54.4,49.3,30.05,NE,42,1.0,1.0,83,0.00,,,0.00,Wunderground v.1.15,2013-02-05 22:05:00,
2013-02-05 14:09:00,54.3,49.2,30.05,NE,46,1.0,1.0,83,0.00,,,0.00,Wunderground v.1.15,2013-02-05 22:09:00,
2013-02-05 14:15:00,54.4,49.3,30.05,NE,46,1.0,1.0,83,0.00,,,0.00,Wunderground v.1.15,2013-02-05 22:15:00,
2013-02-05 14:20:00,54.6,49.2,30.05,NE,46,0.0,0.0,82,0.00,,,0.00,Wunderground v.1.15,2013-02-05 22:20:00,
2013-02-05 14:25:00,54.9,49.5,30.05,NE,46,0.0,0.0,82,0.00,,,0.00,Wunderground v.1.15,2013-02-05 22:25:00,
2013-02-05 14:30:00,55.2,49.8,30.05,NE,46,0.0,0.0,82,0.00,,,0.00,Wunderground v.1.15,2013-02-05 22:30:00,
2013-02-05 14:35:00,55.5,49.8,30.05,NE,46,0.0,1.0,81,0.00,,,0.00,Wunderground v.1.15,2013-02-05 22:35:00,
2013-02-05 14:40:00,55.8,50.1,30.05,NE,46,0.0,0.0,81,0.00,,,0.00,Wunderground v.1.15,2013-02-05 22:40:00,
2013-02-05 14:45:00,56.0,49.9,30.05,NNE,32,0.0,0.0,80,0.00,,,0.00,Wunderground v.1.15,2013-02-05 22:45:00,
2013-02-05 14:55:00,56.4,50.6,30.05,West,261,1.0,3.0,81,0.00,,,0.00,Wunderground v.1.15,2013-02-05 22:55:00,
2013-02-05 15:00:00,56.0,50.6,30.06,WSW,238,1.0,2.0,82,0.00,,,0.00,Wunderground v.1.15,2013-02-05 23:00:00,
2013-02-05 15:05:00,55.7,50.3,30.05,SW,231,1.0,2.0,82,0.00,,,0.00,Wunderground v.1.15,2013-02-05 23:05:00,
2013-02-05 15:10:00,55.5,50.4,30.05,SW,226,1.0,1.0,83,0.00,,,0.00,Wunderground v.1.15,2013-02-05 23:10:00,
2013-02-05 15:15:00,55.5,50.4,30.05,SW,229,1.0,1.0,83,0.00,,,0.00,Wunderground v.1.15,2013-02-05 23:15:00,
2013-02-05 15:20:00,55.5,50.4,30.05,SW,229,0.0,0.0,83,0.00,,,0.00,Wunderground v.1.15,2013-02-05 23:20:00,
2013-02-05 15:30:00,55.6,50.5,30.05,SW,229,0.0,0.0,83,0.00,,,0.00,Wunderground v.1.15,2013-02-05 23:30:00,
2013-02-05 15:35:00,55.5,50.4,30.05,West,281,0.0,0.0,83,0.00,,,0.00,Wunderground v.1.15,2013-02-05 23:35:00,
2013-02-05 15:40:00,55.5,50.4,30.05,West,281,0.0,0.0,83,0.00,,,0.00,Wunderground v.1.15,2013-02-05 23:40:00,
2013-02-05 15:45:00,55.4,50.3,30.05,West,281,0.0,0.0,83,0.00,,,0.00,Wunderground v.1.15,2013-02-05 23:45:00,
2013-02-05 15:50:00,55.4,50.3,30.05,West,281,0.0,0.0,83,0.00,,,0.00,Wunderground v.1.15,2013-02-05 23:50:00,
2013-02-05 15:55:00,55.3,50.2,30.05,West,281,0.0,0.0,83,0.00,,,0.00,Wunderground v.1.15,2013-02-05 23:55:00,
2013-02-05 16:00:00,55.0,50.3,30.05,WNW,284,0.0,0.0,84,0.00,,,0.00,Wunderground v.1.15,2013-02-06 00:00:00,
2013-02-05 16:05:00,54.9,50.2,30.05,WNW,284,0.0,1.0,84,0.00,,,0.00,Wunderground v.1.15,2013-02-06 00:05:00,
2013-02-05 16:10:00,54.7,50.0,30.05,NW,315,0.0,1.0,84,0.00,,,0.00,Wunderground v.1.15,2013-02-06 00:10:00,
2013-02-05 16:15:00,54.5,49.8,30.05,WNW,290,1.0,2.0,84,0.00,,,0.00,Wunderground v.1.15,2013-02-06 00:15:00,
2013-02-05 16:20:00,54.4,49.7,30.05,WNW,284,1.0,1.0,84,0.00,,,0.00,Wunderground v.1.15,2013-02-06 00:20:00,
2013-02-05 16:25:00,54.2,49.8,30.06,WNW,283,1.0,1.0,85,0.00,,,0.00,Wunderground v.1.15,2013-02-06 00:25:00,
2013-02-05 16:30:00,54.0,49.6,30.06,WNW,290,1.0,1.0,85,0.00,,,0.00,Wunderground v.1.15,2013-02-06 00:30:00,
2013-02-05 16:35:00,53.8,49.4,30.06,WNW,290,0.0,1.0,85,0.00,,,0.00,Wunderground v.1.15,2013-02-06 00:35:00,
2013-02-05 16:40:00,53.7,49.3,30.06,WNW,301,0.0,0.0,85,0.00,,,0.00,Wunderground v.1.15,2013-02-06 00:40:00,
2013-02-05 16:45:00,53.5,49.1,30.06,WNW,299,1.0,2.0,85,0.00,,,0.00,Wunderground v.1.15,2013-02-06 00:45:00,
2013-02-05 16:55:00,53.3,48.9,30.06,West,277,0.0,1.0,85,0.00,,,0.00,Wunderground v.1.15,2013-02-06 00:55:00,
2013-02-05 17:00:00,53.2,49.1,30.06,West,277,0.0,0.0,86,0.00,,,0.00,Wunderground v.1.15,2013-02-06 01:00:00,
2013-02-05 17:05:00,53.2,49.1,30.06,West,277,0.0,0.0,86,0.00,,,0.00,Wunderground v.1.15,2013-02-06 01:05:00,
2013-02-05 17:10:00,53.1,49.0,30.06,WNW,292,0.0,3.0,86,0.00,,,0.00,Wunderground v.1.15,2013-02-06 01:10:00,
2013-02-05 17:15:00,53.0,48.9,30.06,WNW,292,1.0,3.0,86,0.00,,,0.00,Wunderground v.1.15,2013-02-06 01:15:00,
2013-02-05 17:20:00,52.9,48.8,30.07,WNW,292,1.0,1.0,86,0.00,,,0.00,Wunderground v.1.15,2013-02-06 01:20:00,
2013-02-05 17:25:00,52.9,48.8,30.06,WNW,292,0.0,1.0,86,0.00,,,0.00,Wunderground v.1.15,2013-02-06 01:25:00,
2013-02-05 17:30:00,52.8,49.0,30.06,WNW,292,0.0,0.0,87,0.00,,,0.00,Wunderground v.1.15,2013-02-06 01:30:00,
2013-02-05 17:35:00,52.7,48.9,30.06,WNW,292,0.0,0.0,87,0.00,,,0.00,Wunderground v.1.15,2013-02-06 01:35:00,
2013-02-05 17:40:00,52.6,48.8,30.06,WNW,292,0.0,0.0,87,0.00,,,0.00,Wunderground v.1.15,2013-02-06 01:40:00,
2013-02-05 17:45:00,52.6,48.8,30.06,WNW,292,0.0,0.0,87,0.00,,,0.00,Wunderground v.1.15,2013-02-06 01:45:00,
2013-02-05 17:55:00,52.4,48.6,30.05,WNW,292,0.0,0.0,87,0.00,,,0.00,Wunderground v.1.15,2013-02-06 01:55:00,
2013-02-05 18:00:00,52.4,48.6,30.05,WNW,292,0.0,0.0,87,0.00,,,0.00,Wunderground v.1.15,2013-02-06 02:00:00,
2013-02-05 18:10:00,52.3,48.9,30.06,WNW,292,0.0,0.0,88,0.00,,,0.00,Wunderground v.1.15,2013-02-06 02:10:00,
2013-02-05 18:15:00,52.3,48.9,30.06,WNW,292,0.0,0.0,88,0.00,,,0.00,Wunderground v.1.15,2013-02-06 02:15:00,
2013-02-05 18:20:00,52.3,48.9,30.06,WNW,292,0.0,0.0,88,0.00,,,0.00,Wunderground v.1.15,2013-02-06 02:20:00,
2013-02-05 18:25:00,52.3,48.9,30.06,WNW,292,0.0,0.0,88,0.00,,,0.00,Wunderground v.1.15,2013-02-06 02:25:00,
2013-02-05 18:30:00,52.2,48.8,30.06,WNW,292,0.0,0.0,88,0.00,,,0.00,Wunderground v.1.15,2013-02-06 02:30:00,
2013-02-05 18:35:00,52.2,48.8,30.06,WNW,292,0.0,0.0,88,0.00,,,0.00,Wunderground v.1.15,2013-02-06 02:35:00,
2013-02-05 18:40:00,52.1,48.7,30.06,WNW,292,0.0,0.0,88,0.00,,,0.00,Wunderground v.1.15,2013-02-06 02:40:00,
2013-02-05 18:45:00,52.1,48.7,30.06,WNW,292,0.0,0.0,88,0.00,,,0.00,Wunderground v.1.15,2013-02-06 02:45:00,
2013-02-05 18:50:00,52.1,48.7,30.06,WNW,285,0.0,0.0,88,0.00,,,0.00,Wunderground v.1.15,2013-02-06 02:50:00,
2013-02-05 18:55:00,52.0,48.6,30.06,WNW,285,0.0,0.0,88,0.00,,,0.00,Wunderground v.1.15,2013-02-06 02:55:00,
2013-02-05 19:00:00,52.0,48.6,30.06,WNW,285,0.0,0.0,88,0.00,,,0.00,Wunderground v.1.15,2013-02-06 03:00:00,
2013-02-05 19:05:00,52.0,48.9,30.06,WNW,285,0.0,0.0,89,0.00,,,0.00,Wunderground v.1.15,2013-02-06 03:05:00,
2013-02-05 19:10:00,51.9,48.8,30.07,WNW,285,0.0,0.0,89,0.00,,,0.00,Wunderground v.1.15,2013-02-06 03:10:00,
2013-02-05 19:15:00,51.9,48.8,30.06,WNW,285,0.0,0.0,89,0.00,,,0.00,Wunderground v.1.15,2013-02-06 03:15:00,
2013-02-05 19:20:00,51.9,48.8,30.06,WNW,285,0.0,0.0,89,0.00,,,0.00,Wunderground v.1.15,2013-02-06 03:20:00,
2013-02-05 19:25:00,51.8,48.7,30.06,WNW,285,0.0,0.0,89,0.00,,,0.00,Wunderground v.1.15,2013-02-06 03:25:00,
2013-02-05 19:30:00,51.8,49.5,30.06,WNW,285,0.0,0.0,92,0.00,,,0.00,Wunderground v.1.15,2013-02-06 03:30:00,
2013-02-05 19:35:00,51.8,48.7,30.07,WNW,285,0.0,0.0,89,0.00,,,0.00,Wunderground v.1.15,2013-02-06 03:35:00,
2013-02-05 19:40:00,51.8,48.7,30.07,WNW,285,0.0,0.0,89,0.00,,,0.00,Wunderground v.1.15,2013-02-06 03:40:00,
2013-02-05 19:45:00,51.7,48.6,30.07,WNW,285,0.0,0.0,89,0.00,,,0.00,Wunderground v.1.15,2013-02-06 03:45:00,
2013-02-05 19:50:00,51.8,48.7,30.07,WNW,285,0.0,0.0,89,0.00,,,0.00,Wunderground v.1.15,2013-02-06 03:50:00,
2013-02-05 19:55:00,51.7,48.6,30.08,WNW,285,0.0,0.0,89,0.00,,,0.00,Wunderground v.1.15,2013-02-06 03:55:00,
2013-02-05 20:00:00,51.7,48.6,30.08,WNW,285,0.0,0.0,89,0.00,,,0.00,Wunderground v.1.15,2013-02-06 04:00:00,
2013-02-05 20:05:00,51.7,48.6,30.08,WNW,285,0.0,0.0,89,0.00,,,0.00,Wunderground v.1.15,2013-02-06 04:05:00,
2013-02-05 20:10:00,51.7,48.6,30.08,WNW,285,0.0,0.0,89,0.00,,,0.00,Wunderground v.1.15,2013-02-06 04:10:00,
2013-02-05 20:15:00,51.7,48.6,30.08,WNW,285,0.0,0.0,89,0.00,,,0.00,Wunderground v.1.15,2013-02-06 04:15:00,
2013-02-05 20:20:00,51.7,48.6,30.08,WNW,285,0.0,0.0,89,0.00,,,0.00,Wunderground v.1.15,2013-02-06 04:20:00,
2013-02-05 20:25:00,51.7,48.6,30.08,WNW,285,0.0,0.0,89,0.00,,,0.00,Wunderground v.1.15,2013-02-06 04:25:00,
2013-02-05 20:30:00,51.7,48.6,30.08,WNW,285,0.0,0.0,89,0.00,,,0.00,Wunderground v.1.15,2013-02-06 04:30:00,
2013-02-05 20:35:00,51.7,48.6,30.08,WNW,285,0.0,0.0,89,0.00,,,0.00,Wunderground v.1.15,2013-02-06 04:35:00,
2013-02-05 20:40:00,51.8,48.7,30.08,WNW,285,0.0,0.0,89,0.00,,,0.00,Wunderground v.1.15,2013-02-06 04:40:00,
2013-02-05 20:45:00,51.8,48.7,30.08,WNW,285,0.0,0.0,89,0.00,,,0.00,Wunderground v.1.15,2013-02-06 04:45:00,
2013-02-05 20:50:00,51.8,48.7,30.08,WNW,285,0.0,0.0,89,0.00,,,0.00,Wunderground v.1.15,2013-02-06 04:50:00,
2013-02-05 20:55:00,51.7,48.6,30.08,WNW,285,0.0,0.0,89,0.00,,,0.00,Wunderground v.1.15,2013-02-06 04:55:00,
2013-02-05 21:00:00,51.7,48.9,30.08,WNW,285,0.0,0.0,90,0.00,,,0.00,Wunderground v.1.15,2013-02-06 05:00:00,
2013-02-05 21:05:00,51.7,48.9,30.08,WNW,285,0.0,0.0,90,0.00,,,0.00,Wunderground v.1.15,2013-02-06 05:05:00,
2013-02-05 21:10:00,51.7,48.9,30.09,WNW,285,0.0,0.0,90,0.00,,,0.00,Wunderground v.1.15,2013-02-06 05:10:00,
2013-02-05 21:15:00,51.7,48.9,30.09,WNW,285,0.0,0.0,90,0.00,,,0.00,Wunderground v.1.15,2013-02-06 05:15:00,
2013-02-05 21:20:00,51.7,48.9,30.08,WNW,285,0.0,0.0,90,0.00,,,0.00,Wunderground v.1.15,2013-02-06 05:20:00,
2013-02-05 21:25:00,51.7,48.9,30.08,WNW,285,0.0,0.0,90,0.00,,,0.00,Wunderground v.1.15,2013-02-06 05:25:00,
2013-02-05 21:30:00,51.7,48.9,30.08,WNW,285,0.0,0.0,90,0.00,,,0.00,Wunderground v.1.15,2013-02-06 05:30:00,
2013-02-05 21:35:00,51.7,48.9,30.08,WNW,285,0.0,0.0,90,0.00,,,0.00,Wunderground v.1.15,2013-02-06 05:35:00,
2013-02-05 21:40:00,51.7,48.9,30.08,WNW,285,0.0,0.0,90,0.00,,,0.00,Wunderground v.1.15,2013-02-06 05:40:00,
2013-02-05 21:45:00,51.6,48.8,30.08,WNW,285,0.0,0.0,90,0.00,,,0.00,Wunderground v.1.15,2013-02-06 05:45:00,
2013-02-05 21:50:00,51.6,48.8,30.08,WNW,285,0.0,0.0,90,0.00,,,0.00,Wunderground v.1.15,2013-02-06 05:50:00,
2013-02-05 21:55:00,51.6,48.8,30.08,WNW,285,0.0,0.0,90,0.00,,,0.00,Wunderground v.1.15,2013-02-06 05:55:00,
2013-02-05 22:00:00,51.6,48.8,30.08,WNW,285,0.0,0.0,90,0.00,,,0.00,Wunderground v.1.15,2013-02-06 06:00:00,
2013-02-05 22:05:00,51.6,48.8,30.08,WNW,285,0.0,0.0,90,0.00,,,0.00,Wunderground v.1.15,2013-02-06 06:05:00,
2013-02-05 22:10:00,51.5,48.7,30.08,WNW,285,0.0,0.0,90,0.00,,,0.00,Wunderground v.1.15,2013-02-06 06:10:00,
2013-02-05 22:15:00,51.6,48.8,30.08,WNW,285,0.0,0.0,90,0.00,,,0.00,Wunderground v.1.15,2013-02-06 06:15:00,
2013-02-05 22:20:00,51.6,48.8,30.08,WNW,285,0.0,0.0,90,0.00,,,0.00,Wunderground v.1.15,2013-02-06 06:20:00,
2013-02-05 22:25:00,51.5,48.7,30.08,WNW,285,0.0,0.0,90,0.00,,,0.00,Wunderground v.1.15,2013-02-06 06:25:00,
2013-02-05 22:30:00,51.5,48.7,30.08,WNW,285,0.0,0.0,90,0.00,,,0.00,Wunderground v.1.15,2013-02-06 06:30:00,
2013-02-05 22:35:00,51.5,48.7,30.07,WNW,285,0.0,0.0,90,0.00,,,0.00,Wunderground v.1.15,2013-02-06 06:35:00,
2013-02-05 22:40:00,51.5,48.7,30.07,WNW,285,0.0,0.0,90,0.00,,,0.00,Wunderground v.1.15,2013-02-06 06:40:00,
2013-02-05 22:45:00,51.5,48.7,30.08,WNW,285,0.0,0.0,90,0.00,,,0.00,Wunderground v.1.15,2013-02-06 06:45:00,
2013-02-05 22:50:00,51.5,48.7,30.08,WNW,285,0.0,0.0,90,0.00,,,0.00,Wunderground v.1.15,2013-02-06 06:50:00,
2013-02-05 22:55:00,51.5,48.7,30.08,WNW,285,0.0,0.0,90,0.00,,,0.00,Wunderground v.1.15,2013-02-06 06:55:00,
2013-02-05 23:00:00,51.5,48.7,30.09,WNW,285,0.0,0.0,90,0.00,,,0.00,Wunderground v.1.15,2013-02-06 07:00:00,
2013-02-05 23:05:00,51.5,48.7,30.08,WNW,285,0.0,0.0,90,0.00,,,0.00,Wunderground v.1.15,2013-02-06 07:05:00,
2013-02-05 23:10:00,51.5,48.7,30.08,WNW,285,0.0,0.0,90,0.00,,,0.00,Wunderground v.1.15,2013-02-06 07:10:00,
2013-02-05 23:15:00,51.5,48.7,30.07,WNW,285,0.0,0.0,90,0.00,,,0.00,Wunderground v.1.15,2013-02-06 07:15:00,
2013-02-05 23:20:00,51.5,48.7,30.07,WNW,285,0.0,0.0,90,0.00,,,0.00,Wunderground v.1.15,2013-02-06 07:20:00,
2013-02-05 23:30:00,51.5,48.7,30.06,NW,309,0.0,0.0,90,0.00,,,0.00,Wunderground v.1.15,2013-02-06 07:30:00,
2013-02-05 23:35:00,51.5,49.0,30.06,NW,315,0.0,0.0,91,0.00,,,0.00,Wunderground v.1.15,2013-02-06 07:35:00,
2013-02-05 23:40:00,51.6,48.8,30.06,NW,316,0.0,0.0,90,0.00,,,0.00,Wunderground v.1.15,2013-02-06 07:40:00,
2013-02-05 23:45:00,51.6,48.8,30.07,NW,320,0.0,0.0,90,0.00,,,0.00,Wunderground v.1.15,2013-02-06 07:45:00,
2013-02-05 23:55:00,51.7,48.9,30.07,NW,320,0.0,0.0,90,0.00,,,0.00,Wunderground v.1.15,2013-02-06 07:55:00,